Temperature
17 18 18 18 18 18 17 17 17 17 17 17 17 17 17 17 17 17 17 17 17 17 16 16 16 16 16 16 16 16 16 16 16 16 16 16 16 15 15 15 15 15 15
17 18 18 17 17 17 17 17 17 17 17 17 17 17 17 17 17 17 17 17 16 16 16 16 16 16 16 16 16 16 16 16 16 16 16 16 15 15 15 15 15 15 15
17 17 17 17 17 17 17 17 17 17 17 17 17 17 17 17 17 17 16 16 16 16 16 16 16 16 16 16 16 16 16 16 16 16 15 15 15 15 15 15 15 15 15
16 17 17 17 17 17 17 17 17 17 17 17 17 17 17 16 16 16 16 16 16 16 16 16 16 16 16 16 15 16 16 16 15 15 15 15 15 15 15 15 15 15 15
16 16 17 17 16 16 16 16 16 16 16 16 16 16 16 16 16 16 16 16 16 16 16 16 16 15 15 15 15 15 15 15 15 15 14 15 15 15 15 15 15 15 15
16 16 16 16 16 16 16 16 16 16 16 16 16 16 16 16 16 16 16 16 16 16 16 15 15 15 15 15 15 15 15 15 15 15 14 14 14 14 15 15 15 15 15
15 16 16 16 16 16 16 16 16 16 16 16 16 16 16 16 16 16 16 16 16 15 15 15 15 15 15 15 15 15 15 15 15 14 14 14 14 14 15 15 15 15 15
15 15 16 16 16 16 16 16 16 16 16 16 16 16 16 16 16 15 15 15 15 15 15 15 15 15 15 15 15 15 15 14 14 14 14 14 14 14 14 15 15 15 14
15 15 15 15 15 15 15 15 15 15 15 15 15 15 15 15 15 15 15 15 15 15 15 15 15 15 15 15 15 15 14 14 14 14 14 14 14 14 14 14 14 14 14
15 15 15 15 15 15 15 15 15 15 15 15 15 15 15 15 15 15 15 15 15 15 15 15 15 15 14 15 15 14 14 14 14 14 14 14 14 14 14 14 14 14 14
14 14 14 14 15 15 15 15 15 15 15 15 15 15 15 15 15 15 15 15 15 15 15 14 14 14 14 14 14 14 14 14 14 13 13 13 13 14 14 14 14 14 14
14 14 14 14 14 14 14 14 14 14 14 14 14 14 14 14 14 14 14 14 14 14 14 14 14 14 14 14 14 14 14 13 13 13 13 13 13 13 13 13 13 13 13
14 14 14 14 14 14 14 14 14 14 14 14 14 14 14 14 14 13 14 13 13 13 13 13 13 13 13 13 13 13 13 13 13 13 13 13 13 13 13 13 13 13 13
13 13 13 14 14 14 14 14 14 14 13 14 14 14 13 13 13 13 13 13 13 13 13 13 13 13 13 13 13 13 13 13 13 12 13 13 13 13 13 13 13 13 12
13 13 13 13 14 14 14 14 13 13 13 13 13 13 13 13 13 13 13 13 13 13 12 12 12 12 12 12 12 12 12 12 12 12 12 12 12 12 12 12 12 12 12
13 13 13 13 13 13 13 13 13 13 13 13 13 13 13 13 13 12 12 12 12 12 12 12 12 12 12 12 12 12 12 12 12 12 12 12 12 12 12 12 12 12 12
13 13 13 13 13 13 13 13 13 13 12 12 12 12 12 12 12 12 12 12 12 12 12 12 11 11 11 11 11 12 12 12 12 12 12 12 12 12 12 12 11 11 11
13 13 12 13 13 13 13 12 12 12 12 12 12 12 12 12 12 12 12 12 11 11 11 11 11 11 11 11 11 11 11 11 11 11 11 11 11 11 11 11 11 11 11
13 12 12 12 12 12 12 12 12 12 12 12 12 12 12 12 11 11 11 11 11 11 11 11 10 10 10 10 10 11 11 11 11 11 11 11 11 11 11 11 11 11 10
12 12 12 12 12 12 12 12 11 11 11 11 11 11 11 11 11 11 11 11 11 10 10 10 10 10 10 10 10 10 10 10 10 10 10 10 10 10 10 10 10 10 10
12 11 11 11 11 11 11 11 11 11 11 11 11 11 11 11 11 11 11 10 10 10 10 10 9 9 9 9 9 9 9 9 9 9 9 9 10 10 9 9 9 9 9
11 11 11 11 11 11 11 11 11 11 10 10 10 10 10 10 10 10 10 10 10 10 9 9 9 9 8 8 8 8 8 8 9 9 9 9 9 9 9 9 9 9 9
11 10 10 10 10 10 10 10 10 10 10 10 10 10 10 10 10 10 10 9 9 9 9 9 8 8 8 8 7 7 7 7 8 8 8 8 8 8 8 8 8 8 8
10 10 10 10 10 10 10 10 10 10 10 10 9 9 9 9 9 9 9 9 9 8 8 8 8 7 7 7 7 7 7 7 7 7 7 7 7 8 8 8 8 8 8
10 9 9 9 9 9 9 9 9 9 9 9 9 9 9 9 9 8 8 8 8 8 8 8 7 7 7 6 6 6 6 6 6 6 6 6 7 7 7 7 7 7 7
9 9 9 9 9 9 9 9 9 9 8 8 8 8 8 8 8 8 8 8 8 8 7 7 7 7 7 6 6 6 5 5 5 5 5 6 6 6 6 6 7 7 7
Wind_Speed
9 11 13 13 13 13 12 12 12 12 12 11 11 11 11 11 10 10 10 10 10 10 10 10 9 9 9 9 10 10 10 10 10 10 10 9 9 9 8 8 8 8 9
11 14 14 14 14 13 13 13 12 12 12 11 11 11 11 11 10 10 9 9 10 10 10 9 9 9 8 8 8 9 9 8 8 8 8 7 8 8 8 8 9 8 8
12 15 14 15 14 14 13 13 12 12 11 11 11 10 10 10 10 10 9 9 9 9 9 8 9 8 8 8 8 8 7 6 6 5 5 6 7 7 7 7 8 7 7
12 14 14 15 15 14 13 13 12 12 11 11 10 10 10 9 9 9 9 9 9 9 8 8 8 8 8 7 7 7 6 4 3 3 3 4 6 6 6 6 6 5 5
11 14 15 15 15 14 13 12 12 11 11 11 10 10 9 9 9 9 9 8 8 8 8 7 7 6 7 7 6 5 4 3 2 1 2 4 6 6 6 5 4 4 4
12 14 15 15 14 14 13 12 12 11 11 10 10 10 9 9 9 9 9 8 8 7 7 6 6 5 5 5 4 4 3 2 1 0 1 3 6 6 5 4 3 3 2
11 13 14 15 14 13 13 12 11 11 10 10 9 9 9 8 8 8 8 8 8 7 6 6 5 5 4 3 3 3 1 0 1 1 1 3 5 5 4 3 2 2 2
11 12 14 14 14 13 12 12 11 10 10 9 9 8 8 8 7 7 7 7 7 6 6 5 4 4 3 3 2 2 1 1 1 1 1 3 4 4 3 2 2 2 2
10 10 10 12 13 13 12 12 11 10 9 9 8 7 7 7 7 7 6 6 6 5 4 4 3 3 2 1 1 2 3 4 3 2 1 3 4 3 1 1 2 3 4
8 8 8 10 11 11 11 11 11 10 9 8 8 6 5 5 6 6 5 5 4 4 3 2 2 1 1 1 1 2 4 5 4 3 1 3 4 2 1 2 3 4 4
6 6 6 7 8 9 9 10 10 9 8 8 7 6 4 4 5 5 5 4 3 3 2 1 1 1 1 2 3 3 4 4 4 3 2 3 3 3 3 4 4 5 5
6 6 5 6 6 7 7 8 7 7 6 5 5 4 3 3 3 4 4 4 3 2 2 1 2 2 2 3 4 4 4 5 4 2 2 4 4 4 5 6 7 7 7
6 5 5 5 5 5 4 5 4 4 4 4 3 3 2 2 2 3 2 2 2 2 2 3 3 3 3 3 3 4 5 4 3 3 4 5 5 6 7 8 9 9 9
6 6 5 5 4 4 4 3 3 3 3 3 3 2 2 2 1 1 2 1 1 0 0 1 2 3 3 4 4 3 3 3 3 4 5 7 6 8 9 10 10 11 11
6 6 5 5 4 4 3 2 2 2 3 3 3 2 2 2 1 1 1 1 0 1 1 1 1 2 2 3 3 3 3 4 4 4 5 8 9 9 10 11 11 12 12
7 7 6 6 5 4 3 3 2 2 3 3 3 2 2 2 1 1 0 0 0 1 1 1 2 2 3 2 3 3 3 4 4 4 5 7 10 11 11 11 12 12 13
7 6 6 6 5 5 4 3 2 3 3 3 3 3 2 2 1 1 1 1 1 1 2 2 2 2 2 3 3 4 3 4 4 4 5 6 8 10 12 12 13 13 14
7 7 6 5 5 4 4 3 2 3 3 3 3 3 2 2 2 1 1 1 1 1 1 1 2 2 2 3 3 4 3 3 4 4 5 5 6 7 10 13 13 14 14
7 7 6 6 5 4 3 3 2 2 2 3 3 2 2 2 2 2 2 1 1 1 1 2 2 2 2 3 4 4 3 4 4 5 5 5 5 6 7 10 14 14 15
7 6 6 6 5 4 3 2 2 2 2 2 3 2 2 2 2 1 1 1 0 1 1 1 2 2 2 3 5 5 4 5 4 5 5 4 5 7 8 9 9 11 14
6 6 6 5 5 4 3 3 3 3 2 2 2 3 3 3 3 2 2 1 1 1 2 2 2 3 3 2 3 5 5 5 5 4 4 4 5 6 7 8 7 7 8
6 6 6 5 4 4 4 3 3 3 3 2 2 3 4 4 4 3 3 2 2 2 2 2 2 2 3 1 1 3 3 4 4 5 5 5 6 5 6 7 7 7 7
5 6 5 4 4 4 4 3 2 1 1 1 2 3 3 4 4 3 3 3 3 3 3 3 3 3 3 3 2 2 2 3 4 4 5 5 5 5 5 5 6 7 8
5 4 5 4 4 4 4 4 4 3 3 4 3 3 3 4 4 4 4 4 3 3 3 4 3 3 3 3 3 3 4 4 4 4 4 4 6 6 6 6 5 6 8
4 4 4 4 3 3 3 4 4 3 3 2 2 3 3 3 4 4 4 3 4 3 4 4 4 4 3 4 4 4 5 4 5 5 8 6 5 5 5 5 5 5 7
4 4 4 4 3 4 4 4 4 4 4 3 3 4 3 3 3 4 4 4 4 4 4 4 5 5 5 5 5 4 4 4 5 5 7 8 7 5 5 5 5 5 6
Wind_Direction
113 116 120 117 116 114 111 108 105 105 104 102 102 103 102 100 98 98 98 97 96 97 98 98 98 98 96 92 89 87 84 82 80 79 83 84 84 85 81 73 77 84 89
116 119 120 118 116 113 110 107 103 102 104 102 101 101 101 100 97 95 99 97 97 96 95 95 98 99 96 99 98 96 92 88 88 88 90 91 92 88 80 73 81 84 85
114 118 119 118 117 114 110 108 105 102 101 101 99 99 99 97 96 95 97 98 97 94 91 91 95 96 96 97 97 98 97 97 100 103 106 105 105 100 90 81 85 87 84
113 115 117 117 116 115 112 108 106 103 100 98 97 96 96 97 97 99 97 97 95 92 88 87 90 95 95 98 101 99 95 96 109 121 124 124 115 111 106 96 93 92 86
110 111 117 119 116 114 113 110 107 104 102 99 98 96 96 96 96 97 97 97 95 91 89 88 88 95 97 98 101 103 99 91 84 122 100 105 109 117 112 106 103 100 92
112 111 118 120 119 117 114 112 109 106 104 100 98 97 96 96 97 95 94 94 92 91 93 92 89 95 100 104 110 108 103 96 101 196 136 114 117 129 128 123 117 121 109
112 113 119 119 118 117 116 114 113 110 106 102 99 99 96 98 97 96 94 96 95 91 88 89 89 95 105 116 126 129 123 160 195 343 44 96 117 134 143 152 156 167 165
115 116 119 120 120 118 117 117 114 111 107 104 101 101 99 97 99 98 100 99 96 93 89 85 83 93 97 119 147 164 200 247 238 259 72 98 112 129 146 168 200 208 221
115 120 124 123 120 119 117 116 113 111 109 106 104 105 104 103 102 102 103 102 99 97 94 89 82 88 93 116 168 217 237 256 263 259 162 118 126 133 166 218 234 239 245
117 123 129 129 125 119 118 120 120 118 118 117 117 118 120 119 115 113 107 110 110 106 105 102 93 99 128 183 215 239 247 259 255 266 195 142 148 165 220 257 255 251 255
124 126 129 128 125 124 125 129 133 133 135 136 135 137 134 127 122 119 116 116 122 129 139 149 191 223 227 232 238 251 253 257 251 250 217 171 175 208 242 261 263 259 260
140 131 126 126 125 126 130 135 145 146 143 135 124 125 124 114 115 127 143 153 159 171 196 215 240 235 233 232 237 241 249 250 253 238 199 189 214 235 248 258 267 266 264
143 131 123 122 125 122 123 133 127 129 133 125 119 125 115 104 111 111 125 145 162 180 213 237 232 233 236 230 228 231 244 244 241 229 204 212 234 247 254 258 262 264 264
143 141 134 128 129 134 131 131 140 136 132 130 124 121 110 102 89 95 109 113 135 210 223 249 235 245 251 251 246 242 248 243 235 221 214 220 237 253 259 262 262 263 263
148 147 141 139 142 140 136 155 139 133 137 135 131 129 112 122 146 91 121 120 217 262 247 264 269 256 251 253 253 253 250 253 243 226 222 224 233 246 261 264 264 266 266
154 153 150 151 152 144 149 160 156 139 137 135 141 149 146 128 132 148 154 179 262 275 264 267 269 263 259 252 257 259 256 258 250 241 225 227 234 242 254 263 266 268 270
157 151 150 153 154 157 163 166 149 156 148 149 161 168 164 143 148 148 186 237 266 279 290 293 290 291 285 278 269 265 258 260 262 260 247 233 233 241 250 259 266 271 272
150 149 150 155 154 163 162 161 164 159 149 159 165 168 174 176 183 159 187 236 281 299 294 281 292 299 294 290 285 279 271 265 268 270 267 249 234 240 246 255 264 270 272
152 151 153 153 159 164 160 169 175 155 160 163 167 170 182 195 199 159 185 218 290 312 280 287 304 300 296 295 289 282 275 271 267 277 271 263 249 244 243 253 258 266 270
154 155 158 156 160 159 157 162 159 167 178 169 169 175 195 204 201 175 185 209 237 257 281 278 284 294 289 288 298 294 280 273 263 260 262 264 261 255 253 255 252 259 264
153 155 158 159 166 160 160 166 174 189 197 195 186 184 201 206 205 193 206 235 226 226 243 257 274 286 296 304 310 302 288 269 261 256 258 262 260 260 257 254 249 249 257
157 156 159 166 174 170 170 175 183 190 197 194 190 192 208 211 208 209 197 220 230 229 246 255 267 280 293 292 296 308 297 292 274 272 271 263 263 262 259 259 256 253 255
154 159 171 174 178 174 167 162 168 154 191 198 207 210 213 215 209 205 205 217 226 221 234 240 235 248 273 273 257 244 268 266 296 262 263 266 269 271 272 273 262 259 261
154 154 163 173 178 178 169 171 176 194 213 220 207 209 216 215 208 207 210 218 228 227 237 246 248 244 248 263 267 254 253 271 286 295 274 264 272 274 273 279 276 271 268
142 151 162 167 173 174 178 184 190 206 221 224 213 210 224 226 206 204 209 215 230 231 235 245 250 245 243 248 254 265 270 275 266 271 286 284 273 263 263 267 270 274 273
129 141 150 163 181 182 188 194 197 209 218 220 231 222 223 227 223 212 214 216 224 229 233 244 245 243 245 248 251 251 254 260 263 263 274 283 283 278 271 266 265 265 271
Height
1493 1495 1496 1498 1500 1502 1504 1506 1507 1509 1510 1512 1513 1514 1516 1517 1518 1519 1520 1521 1522 1523 1524 1524 1525 1525 1526 1527 1527 1528 1528 1529 1529 1529 1529 1529 1530 1530 1530 1530 1531 1531 1531
1492 1494 1496 1498 1500 1502 1504 1506 1508 1509 1511 1512 1514 1515 1516 1517 1518 1519 1520 1521 1522 1523 1524 1525 1525 1526 1527 1527 1528 1528 1529 1529 1529 1530 1530 1530 1530 1531 1531 1531 1531 1532 1532
1492 1494 1496 1498 1500 1502 1504 1506 1508 1510 1512 1513 1514 1515 1516 1517 1519 1520 1521 1522 1523 1524 1525 1525 1526 1526 1527 1528 1528 1529 1529 1529 1530 1530 1530 1530 1531 1531 1531 1532 1532 1532 1532
1492 1494 1496 1498 1501 1503 1505 1507 1508 1510 1512 1513 1514 1516 1517 1518 1519 1520 1521 1522 1523 1524 1525 1525 1526 1527 1527 1528 1528 1529 1529 1530 1530 1530 1530 1530 1531 1531 1532 1532 1532 1532 1532
1493 1494 1496 1499 1501 1503 1505 1507 1508 1510 1512 1513 1514 1516 1517 1518 1519 1520 1521 1522 1523 1524 1524 1525 1526 1527 1527 1528 1528 1529 1529 1530 1530 1530 1530 1531 1531 1531 1531 1532 1532 1532 1532
1493 1495 1496 1499 1501 1503 1505 1507 1508 1510 1511 1513 1514 1515 1517 1518 1519 1520 1521 1522 1522 1523 1524 1525 1526 1526 1527 1527 1528 1528 1529 1529 1530 1530 1530 1531 1531 1531 1531 1531 1531 1531 1532
1492 1494 1497 1499 1501 1503 1505 1506 1508 1510 1511 1513 1514 1515 1516 1517 1518 1519 1520 1521 1522 1522 1523 1524 1525 1525 1526 1526 1527 1528 1528 1529 1529 1530 1530 1530 1530 1530 1530 1530 1531 1531 1531
1492 1495 1497 1499 1501 1503 1504 1506 1508 1509 1511 1512 1513 1514 1515 1517 1518 1519 1520 1520 1521 1522 1522 1523 1524 1524 1525 1525 1526 1527 1527 1528 1528 1528 1529 1529 1529 1529 1529 1529 1529 1529 1530
1493 1495 1496 1498 1500 1502 1504 1506 1507 1509 1510 1511 1513 1514 1515 1516 1517 1518 1519 1519 1520 1521 1521 1522 1523 1523 1524 1524 1525 1525 1526 1526 1527 1527 1527 1527 1528 1528 1528 1528 1528 1528 1528
1493 1495 1496 1498 1500 1501 1503 1505 1507 1508 1509 1511 1512 1513 1514 1515 1516 1516 1517 1518 1519 1519 1520 1520 1521 1522 1522 1523 1523 1524 1524 1525 1525 1525 1526 1526 1526 1526 1526 1526 1526 1526 1526
1493 1494 1496 1497 1499 1501 1502 1504 1505 1507 1508 1509 1511 1512 1513 1514 1514 1515 1516 1516 1517 1518 1518 1519 1519 1520 1521 1521 1522 1522 1522 1523 1523 1523 1524 1524 1524 1524 1524 1524 1524 1524 1524
1491 1493 1495 1496 1498 1499 1501 1503 1504 1506 1507 1508 1509 1510 1511 1512 1513 1514 1514 1515 1515 1516 1516 1517 1518 1518 1519 1519 1519 1520 1520 1521 1521 1521 1521 1521 1521 1521 1521 1521 1521 1521 1521
1490 1492 1493 1495 1496 1498 1500 1501 1503 1504 1506 1507 1508 1509 1510 1511 1511 1512 1512 1513 1513 1514 1514 1515 1515 1516 1516 1517 1517 1517 1518 1518 1518 1518 1518 1519 1519 1519 1518 1518 1518 1518 1518
1488 1489 1491 1493 1495 1496 1498 1500 1501 1503 1504 1505 1506 1507 1508 1509 1510 1510 1510 1511 1511 1512 1512 1512 1513 1513 1514 1514 1514 1515 1515 1515 1515 1515 1515 1515 1515 1515 1515 1515 1515 1514 1514
1485 1487 1489 1491 1493 1495 1496 1498 1500 1501 1502 1503 1505 1506 1506 1507 1508 1508 1508 1509 1509 1509 1510 1510 1510 1511 1511 1511 1512 1512 1512 1512 1512 1512 1512 1512 1512 1512 1512 1511 1511 1511 1510
1483 1485 1487 1489 1491 1492 1494 1496 1497 1499 1500 1501 1503 1503 1504 1505 1505 1506 1506 1507 1507 1507 1508 1508 1508 1508 1508 1508 1508 1509 1509 1509 1509 1509 1509 1508 1508 1508 1508 1508 1507 1507 1506
1480 1482 1484 1486 1488 1490 1492 1493 1495 1496 1498 1499 1500 1501 1502 1502 1503 1503 1503 1504 1504 1505 1505 1505 1505 1505 1505 1505 1505 1505 1505 1505 1505 1505 1505 1505 1504 1504 1504 1504 1503 1503 1502
1477 1479 1481 1484 1485 1487 1489 1491 1493 1494 1495 1497 1498 1498 1499 1500 1500 1500 1501 1501 1501 1502 1502 1502 1502 1502 1502 1502 1501 1501 1501 1501 1501 1501 1501 1500 1500 1500 1499 1499 1499 1498 1498
1474 1476 1478 1480 1483 1485 1487 1489 1490 1491 1493 1494 1495 1495 1496 1497 1497 1497 1498 1498 1499 1499 1499 1499 1499 1499 1499 1498 1498 1497 1497 1497 1496 1496 1496 1496 1495 1495 1494 1494 1493 1493 1493
1471 1473 1475 1477 1480 1482 1484 1485 1487 1488 1490 1491 1492 1492 1493 1494 1494 1494 1494 1495 1495 1495 1496 1496 1496 1496 1495 1495 1494 1493 1492 1492 1492 1491 1491 1491 1490 1490 1490 1489 1488 1488 1487
1468 1470 1471 1474 1476 1478 1479 1481 1483 1485 1486 1487 1488 1489 1490 1490 1491 1491 1491 1492 1492 1492 1492 1492 1492 1492 1492 1491 1490 1488 1487 1487 1486 1486 1486 1486 1485 1485 1485 1484 1484 1483 1482
1464 1466 1468 1470 1472 1474 1476 1478 1480 1481 1483 1484 1485 1486 1486 1487 1487 1487 1488 1488 1488 1488 1488 1489 1489 1488 1488 1488 1488 1485 1483 1482 1481 1481 1481 1480 1480 1480 1479 1479 1479 1477 1476
1460 1462 1463 1466 1468 1470 1472 1474 1476 1478 1479 1480 1480 1481 1482 1483 1483 1484 1484 1484 1484 1484 1484 1485 1485 1484 1484 1484 1485 1485 1482 1478 1476 1475 1475 1475 1475 1475 1474 1474 1473 1472 1471
1456 1458 1460 1462 1464 1466 1468 1470 1471 1472 1474 1475 1476 1477 1478 1479 1479 1480 1480 1480 1480 1480 1481 1481 1481 1481 1480 1479 1480 1481 1481 1478 1476 1470 1469 1470 1470 1469 1469 1468 1467 1466 1465
1453 1455 1457 1458 1460 1462 1464 1466 1467 1469 1470 1471 1472 1473 1474 1474 1475 1475 1475 1476 1476 1476 1476 1476 1477 1476 1476 1476 1475 1475 1475 1475 1473 1471 1465 1463 1464 1464 1463 1462 1461 1460 1459
1450 1452 1453 1455 1457 1458 1460 1462 1463 1464 1466 1467 1468 1468 1469 1470 1470 1471 1471 1471 1472 1472 1471 1471 1472 1472 1471 1471 1471 1470 1470 1470 1468 1467 1463 1460 1458 1457 1457 1456 1455 1454 1453